Regional Weather Roundup
Issued by NWS

Home | Current Version | Previous Version | Text Only | Print | Product List | Glossary On
Versions: 1 2 3 4 5 6 7 8 9 10 11 12 13 14 15 16 17 18 19 20 21 22 23 24 25 26 27 28 29 30 31 32 33 34 35 36 37 38 39 40 41 42 43 44 45 46 47 48 49 50
000
ASUS43 KMPX 300210
RWRMN
WEATHER ROUNDUP FOR MINNESOTA
NATIONAL WEATHER SERVICE TWIN CITIES/CHANHASSEN MN
900 PM CDT MON JUN 29 2015


NOTE: "FAIR" INDICATES FEW OR NO CLOUDS BELOW 12,000 FEET WITH NO
SIGNIFICANT WEATHER AND/OR OBSTRUCTIONS TO VISIBILITY. N/A MEANS
CURRENT SKY AND/OR WEATHER CONDITIONS ARE NOT AVAILABLE.

MNZ060>063-068>070-300300-
   Twin Cities Metro

CITY           SKY/WX    TMP DP  RH WIND       PRES   REMARKS
TWIN CITIES    LGT RAIN  67  63  87 SW7       29.80S FOG
ST PAUL        MOCLDY    64  62  93 SW3       29.80F
CRYSTAL        LGT RAIN  69  64  84 W8        29.79R
BLAINE         MOCLDY    66  64  94 CALM      29.80S
LAKEVILLE      CLOUDY    66  57  72 S2        29.82S
EDEN PRAIRIE   LGT RAIN  67  63  87 CALM      29.79F FOG
SOUTH ST PAUL  MOCLDY    64  62  92 SW3       29.81R
LAKE ELMO      FAIR      63  61  94 S3        29.82S
$$
MNZ001>005-007-008-013>017-022>024-027-028-300300-
   Northwest Minnesota

CITY           SKY/WX    TMP DP  RH WIND       PRES   REMARKS
BEMIDJI        CLEAR     68  59  72 N5        29.87S
HALLOCK        CLEAR     66  59  77 N6        29.90S
ROSEAU         CLEAR     70  61  73 CALM      29.89R
WARROAD        CLEAR     70  63  78 E3        29.89S
THIEF RVR FALL CLEAR     70  61  73 NW7       29.89R
CROOKSTON      CLEAR     68  61  77 N9        29.89R
FOSSTON        CLEAR     66  59  77 N6        29.89R
DETROIT LAKES  CLEAR     70  63  78 NW9       29.89S
MOORHEAD       PTCLDY    70  64  83 N7        29.88S
PARK RAPIDS    CLEAR     70  58  65 NW6       29.85S
MAHNOMEN       FAIR      70  61  75 NW8       29.88R
$$
MNZ006-009>011-018-025>026-300300-
   North Central Minnesota

CITY           SKY/WX    TMP DP  RH WIND       PRES   REMARKS
BAUDETTE       CLEAR     67  56  67 NW3       29.88R
FLAG ISLAND    CLEAR     72  55  56 N8        29.88R
INTL FALLS     PTCLDY    65  56  72 NW3       29.86R
WASKISH        CLEAR     66  57  72 CALM      29.88S
BIG FORK       CLEAR     64  55  72 CALM      29.87S
LONGVILLE      PTCLDY    70  57  64 NW3       29.85R
GRAND RAPIDS   CLEAR     70  55  60 N10       29.86R
CRANE LAKE     MOCLDY    64  57  77 N2        29.86S
ORR            CLEAR     64  54  68 CALM      29.84R
COOK           CLEAR     64  55  72 N3        29.86R
WALKER         FAIR      70  56  62 N7        29.86R
$$
MNZ012-019>021-037-300300-
   Northeast Minnesota

CITY           SKY/WX    TMP DP  RH WIND       PRES   REMARKS
DULUTH         PTCLDY    69  58  67 N6        29.82R
ELY            MOCLDY    64  55  72 N5        29.84R
HIBBING        MOCLDY    67  56  67 N5        29.85R
EVELETH        MOCLDY    64  54  68 N5        29.86R
DULUTH HARBOR  CLEAR     66  63  88 NE8       29.81R
GRAND MARAIS     N/A     60  58  92 CALM      29.79R
G MARAIS ARPRT MOCLDY    57  54  88 NW5       29.84R
$$
MNZ029>031-032-039>041-046>048-054>057-064-300300-
   West Central Minnesota

CITY           SKY/WX    TMP DP  RH WIND       PRES   REMARKS
FERGUS FALLS   PTCLDY    70  63  78 N8        29.87S
WHEATON        CLEAR     66  63  88 NW7       29.89S
MORRIS         CLEAR     72  64  78 NW8       29.86S
ALEXANDRIA     CLEAR     70  63  78 NW7       29.87S
ELBOW LAKE     FAIR      70  64  81 N10       29.87S
WADENA         CLEAR     68  61  77 NW5       29.85S
GLENWOOD       CLEAR     70  64  83 NW6       29.87S
APPLETON       CLEAR     72  64  78 N8        29.85S
BENSON         CLEAR     70  63  78 N8        29.86R
ORTONVILLE     CLEAR     72  63  73 N6        29.87S
MADISON        CLEAR     73  63  68 N7        29.87R
WILLMAR        FAIR      72  64  78 NW7       29.86S
$$
MNZ033>034-036-042>043-049>051-058-059-300300-
   Central Minnesota

CITY           SKY/WX    TMP DP  RH WIND       PRES   REMARKS
ST CLOUD       PTCLDY    69  64  84 E5        29.81R
SAUK CENTRE    FAIR      71  64  77 NW6       29.85R
PAYNESVILLE    CLEAR     68  64  85 W5        29.84S
AITKIN         CLEAR     73  59  60 NW6       29.81S
PINE RIVER       N/A     72  57  60 N5        29.87F
BRAINERD       CLEAR     73  56  54 N9        29.83S
STAPLES        CLEAR     70  57  64 NW5       29.84S
LONG PRAIRIE   FAIR      70  63  78 W7        29.85R
LITTLE FALLS   CLEAR     73  55  53 N3        29.83R
LITCHFIELD     CLEAR     73  68  83 NW9       29.83S
BUFFALO        MOCLDY    74  60  60 NE7       29.82R
MAPLE LAKE     PTCLDY    75  67  76 N6        29.82R
$$
MNZ037-044-045-052-053-300300-
   East Central Minnesota

CITY           SKY/WX    TMP DP  RH WIND       PRES   REMARKS
PRINCETON      MOCLDY    70  63  78 CALM      29.81S
MORA           MOCLDY    64  63  94 SE5       29.82R
CAMBRIDGE      PTCLDY    68  59  73 CALM      29.79S
MOOSE LAKE       N/A     66  66 100 CALM      29.80R FOG
HINCKLEY       FAIR      64  64 100 CALM      29.81R
CLOQUET        CLEAR     68  57  68 N6        29.83R
MCGREGOR       PTCLDY    72  61  68 N6        29.82R
$$
MNZ071>073-080-081-089-090-097-098-300300-
   Southwest Minnesota

CITY           SKY/WX    TMP DP  RH WIND       PRES   REMARKS
MONTEVIDEO     CLEAR     72  61  68 N6        29.86S
GRANITE FALLS  MOCLDY    71  63  76 NW8       29.87R
CANBY          CLEAR     71  64  79 NW5       29.88S
MARSHALL       CLEAR     72  63  73 NW7       29.86S
REDWOOD FALLS  CLEAR     74  63  68 NW8       29.84R
OLIVIA         CLEAR     68  61  77 NW7       29.84S
PIPESTONE      CLEAR     73  63  68 NW3       29.90S
WINDOM         CLEAR     72  63  73 CALM      29.87S
WORTHINGTON    CLEAR     70  61  73 W7        29.89S
JACKSON        MOCLDY    72  61  68 W6        29.88R
TRACY          PTCLDY    73  64  73 NW7       29.87S
SLAYTON        CLEAR     71  63  75 CALM      29.90R
$$
MNZ065>067-074>077-082>085-091>093-300300-
   South Central Minnesota

CITY           SKY/WX    TMP DP  RH WIND       PRES   REMARKS
MANKATO        CLEAR     73  63  68 W9        29.81F
NEW ULM        CLEAR     73  63  68 NW9       29.82S
ST JAMES       CLEAR     72  64  78 W8        29.85S
FAIRMONT       CLEAR     72  59  64 W7        29.85R
GLENCOE        PTCLDY    74  66  77 W7        29.81S
FARIBAULT      MOCLDY    70  59  68 SE7       29.82S
OWATONNA       MOCLDY    68  55  64 SE9       29.83S
WASECA         PTCLDY    70  64  83 SW6       29.82F
ALBERT LEA     PTCLDY    73  64  73 CALM      29.83S
$$
MNZ078>079-086>088-094>096-300300-
   Southeast Minnesota

CITY           SKY/WX    TMP DP  RH WIND       PRES   REMARKS
ROCHESTER      LGT RAIN  61  59  93 S10       29.80F FOG
RED WING       CLOUDY    63  61  94 CALM      29.78F
STANTON        CLOUDY    66  57  72 S5        29.80F
DODGE CENTER   CLOUDY    64  57  77 SE8       29.84F
WINONA         CLOUDY    63  59  88 CALM      29.77F
AUSTIN         MOCLDY    68  59  73 E13G24    29.86R
PRESTON        TSTM      60  58  92 S7        29.86S
$$
ABBREVIATIONS USED IN REMARKS
   TC - TEMPERATURES IN CELSIUS
  WCI - WIND CHILL INDEX
   HX - HEAT INDEX
  VSB - VISIBILITY
$$


USA.gov is the U.S. government's official web portal to all federal, state and local government web resources and services.